Retour au catalogue

STARLINK-36515

ActifCommunicationsVLEO
NORAD 67430·PAYLOAD·🇺🇸 United States

Lancé Jan 12, 2026 depuis Cape Canaveral Space Force Station

Loading…

Prochains Passages (prochaines 24 heures)

TLE

FraisSource: CelesTrak SupGP

Époque: Sep 14, 2026, 20:54 UTC

1 67430C 26005AC  26257.87131944  .00028808  00000+0  10437-2 0  2571
2 67430  43.0012 249.7358 0001581 265.3567 236.9202 15.27555725    18

Suivez STARLINK-36515 en temps réel avec AllMySat

Download on the App Store